NOAA NWS Hourly Roundups by Site

Regional Weather Roundup for Green Bay, WI

To Select Another Site Choose from List

Select Site:  

000
ASUS43 KGRB 202211
RWRGRB

NORTH-CENTRAL AND NORTHEAST WISCONSIN REGIONAL WEATHER ROUNDUP
NATIONAL WEATHER SERVICE GREEN BAY WI
500 PM CDT FRI SEP 20 2019

WIZ005-009-010>012-018-019-202300-
NORTH CENTRAL WISCONSIN

CITY           SKY/WX    TMP DP  RH WIND       PRES   REMARKS
IRONWOOD       FAIR      79  64  60 S9        30.05F
MANITOWISH WTR FAIR      76  64  67 S9        30.09F
ARBOR VITAE    FAIR      77  67  72 SE3       30.10S
EAGLE RIVER    PTSUNNY   76  60  58 SW3       30.10S
LAND O LAKES   FAIR      78  61  56 SW6       30.11
RHINELANDER    PTSUNNY   75  63  66 SE7       30.11F
PHILLIPS       FAIR      77  65  66 S8        30.07F
ANTIGO         FAIR      74  64  70 SE6       30.11F
TOMAHAWK       FAIR      75  64  69 SE6       30.09S
MERRILL        FAIR      79  66  64 SE6       30.09S
$$

WIZ013-073-202300-
NORTHEAST WISCONSIN

CITY           SKY/WX    TMP DP  RH WIND       PRES   REMARKS
IRON MOUNTAIN  FAIR      74  64  71 SE7       30.10F
MARINETTE      FAIR      72  66  81 E6        30.11F
OCONTO         FAIR      74  67  78 E3        30.10R
$$

WIZ017-030-035>037-045-202300-
CENTRAL WISCONSIN

CITY           SKY/WX    TMP DP  RH WIND       PRES   REMARKS
MEDFORD        CLOUDY    74  67  79 S7        30.08S
WAUSAU         FAIR      76  67  73 SE8       30.07F
MOSINEE        PTSUNNY   75  72  88 S8        30.10F
MARSHFIELD     PTSUNNY   77  68  73 SE7       30.07S
WISC RAPIDS    FAIR      80  70  71 SE8       30.07S
STEVENS POINT  PTSUNNY   75  67  75 E7        30.09F
WAUPACA        PTSUNNY   82  69  64 E6        30.10R
SHAWANO        FAIR      78  67  69 E5        30.09S
CLINTONVILLE   FAIR      77  66  68 SE5       30.09S
WAUTOMA        FAIR      81  70  69 SE7       30.08S
$$

WIZ038-039-048-051-202300-
FOX VALLEY

CITY           SKY/WX    TMP DP  RH WIND       PRES   REMARKS
NWS GREEN BAY  FAIR      78  69  73 NE8       30.09F
APPLETON       PTSUNNY   77  61  57 CALM      30.08S
OSHKOSH        FAIR      78  69  73 NE7       30.08S
FOND DU LAC    PTSUNNY   82  68  62 S6        30.08S
$$

WIZ022-050-052-202300-
EAST CENTRAL WISCONSIN

CITY           SKY/WX    TMP DP  RH WIND       PRES   REMARKS
EPHRAIM        FAIR      69  64  85 CALM      30.11F
WASHINGTON ISL MOCLDY    69  65  86 CALM      30.12R
STURGEON BAY   FAIR      73  66  78 E6        30.11F
MANITOWOC      FAIR      69  64  84 MISG      30.12R
SHEBOYGAN      FAIR      76  65  68 E6        30.10R
$$

LMZ563-521-522-541>543-202300-
LAKESHORE

STATION/POSITION TIME  TEMP    WIND        PRES    VSBY  WAVE
                       AIR SEA DIR/SP/G                  HT/PER
                 (UTC) (F)     (DEG/KT/KT) (MB)    (MI)  (FT/S)
SHEBOYGAN LKSHOR 2200   68     100/  5/  5 1019.5R
KEWAUNEE LKSHORE 2124   67      70/  1/  4 1019.1
NORTHPORT PIER   2140   67     100/  2/  3 1019.6S
N MID LAKE BUOY  2150   64 64  320/  4/  4 1020.5R         0
SISTER BAY LKSHO 2156   68        CALM       N/A
CHAMBERS ISLAND  2140   65      50/  6/  7   N/A
MENOMINEE LKSHOR 2124   66 65  320/  3/  4 1019.3
$$


 

View Past Reports for Green Bay, WI.

Products Courtesy of NOAA-NWS
NWS Information Parsing Script by Ken True at Saratoga Weather - Script by SE Lincoln Weather.